DC1MBB-9 Weather Reports


Display with metric or nautical units.
time (UTC)temp
F
wind
direction
speed
MPH
gust
MPH
rain 1hr
in
rain 24hr
in
rain mn
in
humidity
%
barometer
mb
20260503230127 68 0 0.0 0.0 0.00 0.00 0.00 41 957.0
20260503225526 68 0 0.0 0.0 0.00 0.00 0.00 40 956.0
20260503224925 68 0 0.0 0.0 0.00 0.00 0.00 41 956.0
20260503224325 68 0 0.0 0.0 0.00 0.00 0.00 41 956.0
20260503223724 69 0 0.0 0.0 0.00 0.00 0.00 41 956.0
20260503223123 69 0 0.0 0.0 0.00 0.00 0.00 41 956.0
20260503222522 69 0 0.0 0.0 0.00 0.00 0.00 41 956.0
20260503221922 69 0 0.0 0.0 0.00 0.00 0.00 40 956.0
20260503221321 69 0 0.0 0.0 0.00 0.00 0.00 39 956.0
20260503220720 69 0 0.0 0.0 0.00 0.00 0.00 39 956.0
20260503220119 70 0 0.0 0.0 0.00 0.00 0.00 39 956.0
20260503215518 70 0 0.0 0.0 0.00 0.00 0.00 39 956.0
20260503214918 70 0 0.0 0.0 0.00 0.00 0.00 38 956.0
20260503214317 70 0 0.0 0.0 0.00 0.00 0.00 36 956.0
20260503213716 70 0 0.0 0.0 0.00 0.00 0.00 36 956.0
20260503213115 70 0 0.0 0.0 0.00 0.00 0.00 36 956.0
20260503212515 70 0 0.0 0.0 0.00 0.00 0.00 36 956.0
20260503211914 70 0 0.0 0.0 0.00 0.00 0.00 35 956.0
20260503211313 70 0 0.0 0.0 0.00 0.00 0.00 37 956.0
20260503210712 70 0 0.0 0.0 0.00 0.00 0.00 37 956.0
20260503210111 70 0 0.0 0.0 0.00 0.00 0.00 38 956.0
20260503205511 70 0 0.0 0.0 0.00 0.00 0.00 39 956.0
20260503204910 70 0 0.0 0.0 0.00 0.00 0.00 39 956.0
20260503204309 70 0 0.0 0.0 0.00 0.00 0.00 40 956.0
20260503203708 71 0 0.0 0.0 0.00 0.00 0.00 39 955.0
20260503203108 70 0 0.0 0.0 0.00 0.00 0.00 39 955.0
20260503202507 70 0 0.0 0.0 0.00 0.00 0.00 39 955.0
20260503201906 71 0 0.0 0.0 0.00 0.00 0.00 38 955.0
20260503201305 71 0 0.0 0.0 0.00 0.00 0.00 37 955.0
20260503200704 71 0 0.0 0.0 0.00 0.00 0.00 38 955.0
20260503195503 71 0 0.0 0.0 0.00 0.00 0.00 35 955.0
20260503194902 72 0 0.0 0.0 0.00 0.00 0.00 35 955.0
20260503194301 72 0 0.0 0.0 0.00 0.00 0.00 34 955.0
20260503193701 72 0 0.0 0.0 0.00 0.00 0.00 33 955.0
20260503193100 73 0 0.0 0.0 0.00 0.00 0.00 33 955.0
20260503191858 73 0 0.0 0.0 0.00 0.00 0.00 32 955.0
20260503191257 73 0 0.0 0.0 0.00 0.00 0.00 31 955.0
20260503190656 74 0 0.0 0.0 0.00 0.00 0.00 30 955.0
20260503190056 74 0 0.0 0.0 0.00 0.00 0.00 30 955.0
20260503185455 75 0 0.0 0.0 0.00 0.00 0.00 29 955.0
20260503184854 75 0 0.0 0.0 0.00 0.00 0.00 29 955.0
20260503184253 75 0 0.0 0.0 0.00 0.00 0.00 29 955.0
20260503183653 75 0 0.0 0.0 0.00 0.00 0.00 28 955.0
20260503183052 76 0 0.0 0.0 0.00 0.00 0.00 29 955.0
20260503182451 76 0 0.0 0.0 0.00 0.00 0.00 28 955.0
20260503181249 77 0 0.0 0.0 0.00 0.00 0.00 27 954.0
20260503180649 77 0 0.0 0.0 0.00 0.00 0.00 27 954.0
20260503180048 77 0 0.0 0.0 0.00 0.00 0.00 27 954.0
20260503175447 78 0 0.0 0.0 0.00 0.00 0.00 26 954.0
20260503174846 78 0 0.0 0.0 0.00 0.00 0.00 26 954.0
20260503174246 79 0 0.0 0.0 0.00 0.00 0.00 26 954.0
20260503173645 79 0 0.0 0.0 0.00 0.00 0.00 25 954.0
20260503173044 79 0 0.0 0.0 0.00 0.00 0.00 23 954.0
20260503172443 80 0 0.0 0.0 0.00 0.00 0.00 22 954.0
20260503171842 80 0 0.0 0.0 0.00 0.00 0.00 22 954.0
20260503171241 81 0 0.0 0.0 0.00 0.00 0.00 22 954.0
20260503170641 81 0 0.0 0.0 0.00 0.00 0.00 22 954.0
20260503150625 86 0 0.0 0.0 0.00 0.00 0.00 19 954.0
20260503131209 98 0 0.0 0.0 0.00 0.00 0.00 13 955.0
20260503130608 97 0 0.0 0.0 0.00 0.00 0.00 14 955.0
20260503110552 79 0 0.0 0.0 0.00 0.00 0.00 25 956.0
20260503081129 70 0 0.0 0.0 0.00 0.00 0.00 38 958.0
20260503080529 70 0 0.0 0.0 0.00 0.00 0.00 38 958.0
20260503072924 67 0 0.0 0.0 0.00 0.00 0.00 39 958.0
20260503072323 67 0 0.0 0.0 0.00 0.00 0.00 40 958.0
20260503071722 67 0 0.0 0.0 0.00 0.00 0.00 42 958.0
20260503071122 66 0 0.0 0.0 0.00 0.00 0.00 44 958.0
20260503070521 66 0 0.0 0.0 0.00 0.00 0.00 45 958.0
20260503054711 58 0 0.0 0.0 0.00 0.00 0.00 56 958.0
20260503054110 58 0 0.0 0.0 0.00 0.00 0.00 57 958.0
20260503053509 57 0 0.0 0.0 0.00 0.00 0.00 57 958.0
20260503052909 57 0 0.0 0.0 0.00 0.00 0.00 61 958.0
20260503052308 56 0 0.0 0.0 0.00 0.00 0.00 60 958.0
20260503051707 56 0 0.0 0.0 0.00 0.00 0.00 62 958.0
20260503051106 55 0 0.0 0.0 0.00 0.00 0.00 63 958.0
20260503050506 55 0 0.0 0.0 0.00 0.00 0.00 62 958.0
20260503045905 55 0 0.0 0.0 0.00 0.00 0.00 61 959.0
20260503045305 55 0 0.0 0.0 0.00 0.00 0.00 60 959.0
20260503044703 55 0 0.0 0.0 0.00 0.00 0.00 61 959.0
20260503044102 55 0 0.0 0.0 0.00 0.00 0.00 59 959.0
20260503043502 54 0 0.0 0.0 0.00 0.00 0.00 61 959.0
20260503042901 55 0 0.0 0.0 0.00 0.00 0.00 59 959.0
20260503042300 55 0 0.0 0.0 0.00 0.00 0.00 59 959.0
20260503041659 55 0 0.0 0.0 0.00 0.00 0.00 59 959.0
20260503041059 54 0 0.0 0.0 0.00 0.00 0.00 60 959.0
20260503040458 55 0 0.0 0.0 0.00 0.00 0.00 58 959.0
20260503035857 55 0 0.0 0.0 0.00 0.00 0.00 59 958.0
20260503035256 55 0 0.0 0.0 0.00 0.00 0.00 58 958.0
20260503034656 55 0 0.0 0.0 0.00 0.00 0.00 58 958.0
20260503034055 55 0 0.0 0.0 0.00 0.00 0.00 58 958.0
20260503033454 55 0 0.0 0.0 0.00 0.00 0.00 58 958.0
20260503032853 55 0 0.0 0.0 0.00 0.00 0.00 58 958.0
20260503032252 54 0 0.0 0.0 0.00 0.00 0.00 59 958.0
20260503031652 56 0 0.0 0.0 0.00 0.00 0.00 57 958.0
20260503031051 56 0 0.0 0.0 0.00 0.00 0.00 55 958.0
20260503030450 56 0 0.0 0.0 0.00 0.00 0.00 55 958.0
20260503025849 56 0 0.0 0.0 0.00 0.00 0.00 55 958.0
20260503025249 56 0 0.0 0.0 0.00 0.00 0.00 54 958.0
20260503024648 56 0 0.0 0.0 0.00 0.00 0.00 55 958.0
20260503024047 56 0 0.0 0.0 0.00 0.00 0.00 55 959.0
20260503023446 56 0 0.0 0.0 0.00 0.00 0.00 54 959.0
20260503022846 56 0 0.0 0.0 0.00 0.00 0.00 54 959.0
20260503022245 57 0 0.0 0.0 0.00 0.00 0.00 54 959.0
20260503021644 56 0 0.0 0.0 0.00 0.00 0.00 55 959.0
20260503021043 57 0 0.0 0.0 0.00 0.00 0.00 53 959.0
20260503020443 56 0 0.0 0.0 0.00 0.00 0.00 53 959.0
20260503015842 57 0 0.0 0.0 0.00 0.00 0.00 52 959.0
20260503015241 57 0 0.0 0.0 0.00 0.00 0.00 53 959.0
20260503014640 57 0 0.0 0.0 0.00 0.00 0.00 51 959.0
20260503014039 57 0 0.0 0.0 0.00 0.00 0.00 52 959.0
20260503013439 57 0 0.0 0.0 0.00 0.00 0.00 51 959.0
20260503012838 57 0 0.0 0.0 0.00 0.00 0.00 51 959.0
20260503012237 58 0 0.0 0.0 0.00 0.00 0.00 50 959.0
20260503011636 58 0 0.0 0.0 0.00 0.00 0.00 51 959.0
20260503011036 58 0 0.0 0.0 0.00 0.00 0.00 50 959.0
20260503010435 58 0 0.0 0.0 0.00 0.00 0.00 49 959.0
20260503005834 59 0 0.0 0.0 0.00 0.00 0.00 48 959.0
20260503005233 59 0 0.0 0.0 0.00 0.00 0.00 49 959.0
20260503004633 59 0 0.0 0.0 0.00 0.00 0.00 48 959.0
20260503004032 59 0 0.0 0.0 0.00 0.00 0.00 47 959.0
20260503003431 59 0 0.0 0.0 0.00 0.00 0.00 47 959.0
20260503002830 59 0 0.0 0.0 0.00 0.00 0.00 48 959.0
20260503002229 60 0 0.0 0.0 0.00 0.00 0.00 45 959.0
20260503001629 61 0 0.0 0.0 0.00 0.00 0.00 44 959.0
20260503001028 61 0 0.0 0.0 0.00 0.00 0.00 43 959.0
20260503000430 61 0 0.0 0.0 0.00 0.00 0.00 43 959.0
20260502235826 61 0 0.0 0.0 0.00 0.00 0.00 42 959.0
20260502235226 62 0 0.0 0.0 0.00 0.00 0.00 41 959.0
20260502234625 62 0 0.0 0.0 0.00 0.00 0.00 40 959.0
20260502234024 62 0 0.0 0.0 0.00 0.00 0.00 41 959.0
20260502233423 62 0 0.0 0.0 0.00 0.00 0.00 40 959.0
20260502232823 62 0 0.0 0.0 0.00 0.00 0.00 43 959.0
20260502232222 62 0 0.0 0.0 0.00 0.00 0.00 43 959.0
20260502231621 62 0 0.0 0.0 0.00 0.00 0.00 42 959.0
20260502231020 62 0 0.0 0.0 0.00 0.00 0.00 44 959.0